[[{"header":{"parameterUnit":"m.s-1","parameterCategory":1,"la1":30.2991,"la2":30.254,"lo1":-89.0895,"lo2":-89.0444,"dy":0.0017,"dx":0.0017,"nx":28,"ny":28,"refTime":"2024-12-15T03:00:00:Z","depth":0,"parameterNumber":2,"parameterNumberName":"U-component_of_WINDS"},"data":[0,0,0,0,0,0,0,0,0,0,0,0,0,0,0,0,0,0,0,0,0,0,0,0,0,0,0,0,0,0,0,0,0,0,0,0,0,0,0,0,0,0,0,0,0,0,0,0,0,0,0,0,0,0,0,0,0,0,-6.3567,-6.3567,0,-6.3617,-6.3617,-6.3618,-6.3546,-6.3543,-6.3541,-6.3539,-6.3589,-6.3592,-6.3596,0,0,0,0,0,0,0,0,0,0,0,0,0,-6.341,-6.3414,-6.3567,-6.3567,-6.3568,-6.3617,-6.3617,-6.3618,-6.3546,-6.3543,-6.354,-6.3537,-6.3587,-6.3592,-6.3596,0,0,0,0,0,0,0,0,0,0,0,0,0,-6.3471,-6.3415,-6.3567,-6.3538,-6.3536,-6.3616,-6.3617,-6.3618,-6.3547,-6.3543,-6.3539,-6.3536,-6.3586,-6.3591,-6.3597,-6.3707,0,0,-6.3614,-6.3616,0,0,0,0,0,0,0,0,-6.3468,-6.3477,-6.3542,-6.354,-6.3538,-6.3571,-6.358,-6.3648,-6.3548,-6.3543,-6.3538,-6.3534,-6.3586,-6.3591,-6.3609,-6.3709,-6.3711,-6.3614,-6.3617,-6.362,-6.3621,0,0,0,0,0,0,0,-6.3464,-6.3474,-6.3586,-6.3543,-6.3541,-6.3523,-6.3528,-6.3593,-6.3585,-6.3543,-6.3538,-6.3545,-6.3584,-6.3604,-6.3609,-6.3712,-6.3614,-6.3619,-6.3622,-6.3624,-6.3907,-6.3911,0,0,0,0,0,0,-6.3463,-6.3471,-6.3585,-6.3588,-6.3493,-6.3529,-6.3534,-6.3564,-6.3584,-6.3583,-6.3548,-6.3541,-6.3596,-6.3603,-6.3611,-6.374,-6.362,-6.3625,-6.3628,-6.3903,-6.3908,-6.3912,0,0,0,0,0,0,-6.346,-6.3474,-6.3583,-6.3528,-6.3541,-6.3536,-6.357,-6.3567,-6.3587,-6.3588,-6.3586,-6.3569,-6.3593,-6.3603,-6.3684,-6.3741,-6.3627,-6.3633,-6.3898,-6.3904,-6.391,-6.4001,0,0,0,0,0,0,-6.3456,-6.3473,-6.3514,-6.353,-6.3544,-6.3655,-6.3574,-6.3571,-6.3597,-6.3588,-6.3607,-6.3607,-6.3591,-6.3676,-6.3689,-6.3747,-6.3637,-6.3892,-6.3901,-6.3908,-6.3993,-6.401,-6.4024,0,0,0,0,0,-6.345,-6.3537,-6.3516,-6.3531,-6.3595,-6.3658,-6.3666,-6.3646,-6.3602,-6.3643,-6.3644,-6.3606,-6.3734,-6.3685,-6.3699,-6.3759,-6.3889,-6.3898,-6.3907,-6.3986,-6.4006,-6.4024,0,0,0,0,0,0,-6.3527,-6.3538,-6.3516,-6.361,-6.3634,-6.3646,-6.3697,-6.3669,-6.3705,-6.3695,-6.367,-6.3675,-6.3761,-6.3769,-6.3714,-6.3868,-6.3804,-6.3817,-6.3858,-6.3878,-6.3893,-6.3888,-6.3641,0,0,0,0,0,-6.3555,-6.3605,-6.3613,-6.3696,-6.3709,-6.3702,-6.3728,-6.3711,-6.3734,-6.3744,-6.3751,-6.3774,-6.382,-6.385,-6.3892,-6.3996,-6.3998,-6.4044,-6.406,-6.4073,-6.4083,-6.4138,-6.4158,-6.3943,-6.3943,-6.3943,0,0,-6.3613,-6.3626,-6.3658,-6.3711,-6.3727,-6.378,-6.371,-6.3768,-6.3806,-6.3752,-6.3828,-6.3835,-6.386,-6.3953,-6.3994,-6.3962,-6.4144,-6.4085,-6.4095,-6.4098,-6.415,-6.417,-6.4188,-6.3949,-6.3948,-6.3947,0,0,-6.3744,-6.376,-6.383,-6.3849,-6.3875,-6.3871,-6.3888,-6.3906,-6.3908,-6.3985,-6.3946,-6.3992,-6.4071,-6.409,-6.4111,-6.4255,-6.4221,-6.427,-6.435,-6.4404,-6.4421,-6.4436,-6.4486,-6.4504,-6.4281,-6.4281,-6.4281,0,-6.3812,-6.3889,-6.387,-6.3931,-6.3956,-6.3912,-6.3984,-6.4003,-6.4041,-6.4059,-6.4024,-6.4123,-6.4137,-6.4234,-6.4269,-6.4288,-6.4307,-6.4265,-6.4421,-6.4435,-6.4449,-6.4496,-6.4515,-6.4287,-6.4286,-6.4286,-6.4285,0,-6.3972,-6.4026,-6.408,-6.412,-6.4151,-6.4217,-6.4208,-6.4243,-6.4225,-6.4225,-6.4304,-6.4321,-6.4365,-6.4388,-6.4371,-6.4483,-6.4462,-6.4425,-6.4359,-6.4475,-6.4519,-6.4537,-6.4295,-6.4293,-6.4291,-6.429,0,0,-6.4147,-6.4178,-6.4198,-6.4216,-6.4244,-6.4286,-6.4352,-6.4396,-6.4426,-6.4456,-6.4509,-6.4579,-6.4545,-6.4569,-6.4554,-6.4603,-6.4715,-6.4559,-6.4559,-6.4585,-6.4839,-6.4864,-6.4886,-6.4695,-6.4698,-6.4701,-6.4836,0,-6.4277,-6.4389,-6.4376,-6.4483,-6.4533,-6.4495,-6.4552,-6.4576,-6.4579,-6.4622,-6.4625,-6.4675,-6.4627,-6.4641,-6.4687,-6.4691,-6.4765,-6.4682,-6.4743,-6.4745,-6.4734,-6.4909,-6.4935,-6.5061,-6.4853,-6.4856,-6.4858,0,-6.4441,-6.4478,-6.4591,-6.4613,-6.4633,-6.4685,-6.4726,-6.4768,-6.4796,-6.4794,-6.4823,-6.4801,-6.4867,-6.4805,-6.4896,-6.4839,-6.4865,-6.4871,-6.4876,-6.4877,-6.4806,-6.4912,-6.5101,-6.5119,-6.4885,-6.4883,-6.4881,0,-6.4555,-6.4633,-6.4711,-6.4728,-6.4756,-6.4793,-6.4807,-6.4831,-6.4859,-6.4896,-6.4914,-6.4959,-6.4982,-6.5017,-6.5008,-6.4963,-6.5101,-6.5038,-6.5101,-6.5101,-6.5127,-6.5125,-6.532,-6.515,-6.515,-6.515,-6.5149,0,-6.4698,-6.4768,-6.4762,-6.481,-6.4888,-6.4874,-6.4951,-6.496,-6.4983,-6.5031,-6.5003,-6.5049,-6.5036,-6.5082,-6.5076,-6.5152,-6.5164,-6.5164,-6.5161,-6.5164,-6.5164,-6.5177,-6.5167,-6.5155,-6.5153,-6.5152,-6.5152,0,-6.4836,-6.4835,-6.4917,-6.4939,-6.4947,-6.5003,-6.5021,-6.5066,-6.5069,-6.5131,-6.5145,-6.5149,-6.5202,-6.5198,-6.5258,-6.5254,-6.5347,-6.5336,-6.5338,-6.5334,-6.5396,-6.5389,-6.5603,-6.563,-6.5446,-6.5448,-6.545,0,-6.4926,-6.4979,-6.5007,-6.5038,-6.5055,-6.5105,-6.5135,-6.5125,-6.5157,-6.5194,-6.5235,-6.5287,-6.5326,-6.5414,-6.5421,-6.5468,-6.5455,-6.5527,-6.5461,-6.5463,-6.5453,-6.5448,-6.5453,-6.5538,-6.554,-6.5542,-6.5543,0,-6.5084,-6.5082,-6.5126,-6.5171,-6.5208,-6.5243,-6.5274,-6.5302,-6.5295,-6.5333,-6.5388,-6.5419,-6.5482,-6.5533,-6.5578,-6.5592,-6.5566,-6.5565,-6.5582,-6.5583,-6.5581,-6.5581,-6.5369,-6.5559,-6.5557,-6.5556,-6.5555,-6.5555,-6.5198,-6.5244,-6.5272,-6.5322,-6.5346,-6.5377,-6.5421,-6.543,-6.5476,-6.5526,-6.5519,-6.558,-6.5609,-6.5666,-6.5686,-6.5734,-6.5708,-6.5732,-6.5738,-6.5743,-6.5749,-6.5578,-6.5742,-6.5742,-6.5742,-6.5741,-6.5741,0,-6.5353,-6.537,-6.5417,-6.5463,-6.5504,-6.548,-6.5515,-6.555,-6.5604,-6.5634,-6.5675,-6.5738,-6.5789,-6.5803,-6.5852,-6.5887,-6.5877,-6.59,-6.5895,-6.5899,-6.5771,-6.575,-6.5908,-6.5908,-6.5908,-6.5908,-6.5908,-6.5908,-6.5437,-6.5513,-6.5516,-6.5604,-6.5621,-6.5681,-6.5703,-6.5732,-6.5755,-6.5828,-6.587,-6.588,-6.5904,-6.5954,-6.6,-6.6003,-6.6021,-6.6048,-6.6046,-6.5925,-6.5908,-6.5892,-6.5872,-6.6053,-6.6053,-6.617,-6.6171,-6.6172]},{"header":{"parameterUnit":"m.s-1","parameterCategory":1,"la1":30.2991,"la2":30.254,"lo1":-89.0895,"lo2":-89.0444,"dy":0.0017,"dx":0.0017,"nx":28,"ny":28,"refTime":"2024-12-15T03:00:00:Z","depth":0,"parameterNumber":3,"parameterNumberName":"V-component_of_WINDS"},"data":[0,0,0,0,0,0,0,0,0,0,0,0,0,0,0,0,0,0,0,0,0,0,0,0,0,0,0,0,0,0,0,0,0,0,0,0,0,0,0,0,0,0,0,0,0,0,0,0,0,0,0,0,0,0,0,0,0,0,1.6829,1.683,0,1.6899,1.6899,1.69,1.6991,1.6993,1.6994,1.6996,1.706,1.706,1.7061,0,0,0,0,0,0,0,0,0,0,0,0,0,1.6769,1.677,1.6829,1.683,1.6831,1.6898,1.6899,1.69,1.6991,1.6993,1.6995,1.6997,1.706,1.706,1.7061,0,0,0,0,0,0,0,0,0,0,0,0,0,1.6812,1.677,1.6829,1.6884,1.689,1.6898,1.6899,1.6901,1.6991,1.6993,1.6995,1.6997,1.706,1.706,1.7061,1.7018,0,0,1.7062,1.7062,0,0,0,0,0,0,0,0,1.681,1.6815,1.6875,1.688,1.6887,1.6939,1.6902,1.694,1.699,1.6952,1.6996,1.6998,1.7017,1.7021,1.7029,1.7021,1.7024,1.7062,1.7062,1.7063,1.7063,0,0,0,0,0,0,0,1.6807,1.6812,1.6856,1.6876,1.6883,1.6904,1.6913,1.691,1.6971,1.6956,1.6963,1.697,1.7021,1.7029,1.7031,1.7025,1.7062,1.7062,1.7063,1.7063,1.6987,1.6985,0,0,0,0,0,0,1.6796,1.6809,1.6854,1.6858,1.6853,1.6903,1.6913,1.692,1.6971,1.6981,1.6968,1.6974,1.7027,1.7031,1.7034,1.6989,1.7063,1.7063,1.7063,1.6989,1.6987,1.6984,0,0,0,0,0,0,1.6795,1.68,1.6851,1.6836,1.6844,1.6902,1.6909,1.692,1.6928,1.6981,1.6991,1.6965,1.7029,1.7033,1.7022,1.6993,1.7063,1.7064,1.6992,1.6989,1.6985,1.6898,0,0,0,0,0,0,1.6793,1.6798,1.6784,1.6835,1.6844,1.6839,1.6907,1.692,1.6929,1.6938,1.6981,1.699,1.7031,1.7021,1.7023,1.6995,1.7064,1.6995,1.699,1.6986,1.6904,1.6892,1.6882,0,0,0,0,0,1.679,1.6754,1.6783,1.6787,1.6828,1.6838,1.6843,1.6893,1.6926,1.6912,1.6946,1.6988,1.6996,1.7019,1.7022,1.6993,1.6997,1.6992,1.6987,1.6909,1.6894,1.6882,0,0,0,0,0,0,1.6695,1.6762,1.6794,1.6774,1.68,1.6853,1.6836,1.6876,1.6891,1.6898,1.6957,1.6966,1.6948,1.6969,1.6994,1.6956,1.7003,1.6998,1.6943,1.6929,1.6919,1.6914,1.7064,0,0,0,0,0,1.6672,1.6677,1.6734,1.6711,1.6723,1.6777,1.6783,1.682,1.6848,1.6859,1.6892,1.6916,1.6924,1.6928,1.6938,1.6907,1.6918,1.6889,1.6878,1.6869,1.6864,1.6851,1.6839,1.6967,1.6967,1.6967,0,0,1.6624,1.6661,1.666,1.6693,1.6717,1.672,1.6785,1.6784,1.6786,1.6858,1.6851,1.6876,1.6906,1.6886,1.6879,1.6903,1.6831,1.6862,1.6855,1.6855,1.6845,1.6833,1.6822,1.6964,1.6964,1.6965,0,0,1.6538,1.6566,1.6552,1.6576,1.6613,1.665,1.6646,1.6694,1.6715,1.6709,1.6764,1.6766,1.6778,1.6798,1.681,1.6735,1.6774,1.6736,1.6679,1.6665,1.6655,1.6647,1.6621,1.6611,1.6731,1.673,1.673,0,1.6473,1.6481,1.6538,1.6535,1.6548,1.6616,1.6601,1.662,1.6658,1.6664,1.6692,1.6711,1.6736,1.6723,1.6705,1.6711,1.6709,1.6731,1.6653,1.6645,1.6637,1.6613,1.6603,1.6726,1.6726,1.6727,1.6727,0,1.64,1.6404,1.6387,1.6426,1.6437,1.6427,1.6482,1.6485,1.6521,1.6555,1.6549,1.6582,1.6601,1.66,1.6634,1.6592,1.6606,1.6642,1.6691,1.6619,1.6598,1.6589,1.6719,1.672,1.6722,1.6723,0,0,1.6255,1.6327,1.632,1.6339,1.6387,1.639,1.6384,1.6406,1.6408,1.6432,1.6428,1.6438,1.6473,1.6486,1.6523,1.6511,1.6451,1.6549,1.6551,1.6531,1.6408,1.6381,1.6369,1.6478,1.6476,1.6475,1.6406,0,1.6179,1.6175,1.6227,1.6208,1.6213,1.6279,1.6273,1.6301,1.6332,1.634,1.6373,1.6381,1.6425,1.6434,1.6426,1.646,1.6427,1.6466,1.6474,1.6474,1.6465,1.6358,1.6329,1.6262,1.6397,1.6396,1.6395,0,1.6089,1.6112,1.6094,1.6145,1.6149,1.6143,1.6169,1.6175,1.6208,1.6232,1.6248,1.6291,1.6287,1.6333,1.6329,1.6354,1.6361,1.6378,1.6377,1.638,1.643,1.6358,1.6241,1.6231,1.6382,1.6383,1.6384,0,1.5987,1.6013,1.6006,1.602,1.6079,1.6074,1.6097,1.6132,1.6143,1.6164,1.6171,1.619,1.62,1.6213,1.626,1.6289,1.6251,1.63,1.627,1.6268,1.6259,1.6259,1.6141,1.6261,1.6261,1.6261,1.6262,0,1.5897,1.5884,1.5962,1.5958,1.5945,1.6005,1.599,1.6019,1.6051,1.6053,1.6109,1.6109,1.6171,1.6178,1.6214,1.6205,1.6209,1.6228,1.6237,1.6223,1.6221,1.6228,1.6234,1.6259,1.6259,1.626,1.626,0,1.5781,1.5833,1.583,1.5887,1.5901,1.5889,1.5937,1.5935,1.597,1.5972,1.5976,1.6031,1.6042,1.6091,1.6112,1.6137,1.6116,1.6135,1.6106,1.6113,1.608,1.6082,1.5964,1.5952,1.6078,1.6076,1.6075,0,1.5721,1.5713,1.577,1.5777,1.5799,1.5809,1.5821,1.5879,1.5888,1.5926,1.5919,1.5936,1.5952,1.5967,1.6007,1.6024,1.6045,1.6002,1.6047,1.6034,1.6045,1.6046,1.6046,1.5992,1.599,1.5989,1.5988,0,1.5609,1.5636,1.5652,1.5678,1.5691,1.5713,1.5738,1.574,1.5804,1.5812,1.5826,1.5839,1.5863,1.5878,1.5903,1.5925,1.5967,1.5974,1.5968,1.5953,1.5937,1.5947,1.608,1.5976,1.5977,1.5978,1.5979,1.5979,1.552,1.5517,1.5558,1.5574,1.56,1.5623,1.5625,1.5662,1.5675,1.5702,1.5734,1.5744,1.5778,1.5815,1.5835,1.5842,1.5866,1.5856,1.5854,1.5851,1.5845,1.5936,1.5847,1.5847,1.5847,1.5848,1.5848,0,1.5413,1.5443,1.5458,1.5493,1.5506,1.5547,1.5577,1.5585,1.5594,1.5623,1.5639,1.5655,1.5671,1.5714,1.5733,1.5731,1.5751,1.5734,1.5735,1.574,1.5822,1.5826,1.5718,1.5718,1.5718,1.5718,1.5718,1.5718,1.5359,1.5356,1.5388,1.5399,1.5428,1.5441,1.5455,1.5476,1.55,1.5516,1.5531,1.556,1.5594,1.5617,1.5633,1.5645,1.565,1.5627,1.5646,1.5722,1.5734,1.5746,1.575,1.5628,1.5628,1.5563,1.5563,1.5562]}]]